Regional Weather Roundup
Issued by NWS Wakefield, VA

Home | Current Version | Previous Version | Text Only | Print | Product List | Glossary Off
Versions: 1 2 3 4 5 6 7 8 9 10 11 12 13 14 15 16 17 18 19 20 21 22 23 24 25 26 27 28 29 30 31 32 33 34 35 36 37 38 39 40 41 42 43 44 45 46 47 48 49 50

000
ASUS41 KAKQ 270110
RWRAKQ

REGIONAL WEATHER ROUNDUP
NATIONAL WEATHER SERVICE WAKEFIELD VA
800 PM EST FRI DEC 26 2014

Note: "fair" indicates few or no clouds below 12,000 feet with no
significant weather and/or obstructions to visibility. * = Denotes
station may not report precipitation (e.g., rain,snow,etc.),
thunder or fog.

VAZ042-051-052>054-056-270200-
NORTHERN VIRGINIA

CITY           SKY/WX    TMP DP  RH WIND       PRES   REMARKS
WASH NATIONAL  PTCLDY    44  35  70 CALM      30.30R
DULLES         PTCLDY    33  29  85 SE3       30.28R
FORT BELVOIR   CLEAR     35  31  85 CALM      30.30R
QUANTICO       CLEAR     37  33  85 NW5       30.31R
FREDERICKSBRG* PTCLDY    36  33  89 CALM      30.29R
STAFFORD*      PTCLDY    34  34 100 CALM      30.33S
WARRENTON      CLEAR     31  31 100 CALM      30.28R
CULPEPER*      MOCLDY    34  32  93 CALM      30.29R
MANASSAS*      PTCLDY    34  32  93 CALM      30.29S
LEESBURG*      CLEAR     37  34  87 CALM      30.28S
WINCHESTER     MOCLDY    37  30  75 CALM      30.25S
FRONT ROYAL*   MOCLDY    39  32  75 S3        30.25R
LURAY*         MOCLDY    37  34  87 CALM      30.25S
$$

VAZ048-049-060>072-079>083-270200-
CENTRAL AND SOUTH CENTRAL VIRGINIA

CITY           SKY/WX    TMP DP  RH WIND       PRES   REMARKS
RICHMOND       PTCLDY    40  33  76 CALM      30.29S
CHESTERFIELD*  PTCLDY    37  23  56 CALM      30.31R
PETERSBURG*    PTCLDY    35  34  97 CALM      30.31R
HANOVER        CLEAR     35  32  88 CALM      30.31S
TAPPAHANNOCK*  CLEAR     37  32  84 CALM      30.30S
QUINTON*       CLEAR     37  34  89 MISG      30.29S
CHARLOTTSVILLE MOCLDY    44  31  60 VRB3      30.27R
GORDONSVILLE*  MOCLDY    33  31  90 CALM      30.28S
ORANGE*        MOCLDY    36  32  87 CALM      30.29S
LOUISA*        PTCLDY    36  34  93 CALM      30.27S
BUMPASS*       MOCLDY    37  32  82 CALM      30.28S
FARMVILLE*     MOCLDY    39  32  76 CALM      30.27F
CREWE*         MOCLDY    38  34  86 CALM      30.29R
FORT PICKETT*  MOCLDY    39  36  87 CALM      30.29S
CHASE CITY*    MOCLDY    42  39  91 CALM      30.29F
CLARKSVILLE*   MOCLDY    41  36  81 CALM      30.29R
SOUTH HILL*    MOCLDY    39  36  91 CALM      30.36R
LAWRENCEVILLE* MOCLDY    40  37  87 CALM      30.30R
EMPORIA*       PTCLDY    36  34  93 CALM      30.33R
$$

VAZ088>098-270200-
SOUTHEAST VIRGINIA

CITY           SKY/WX    TMP DP  RH WIND       PRES   REMARKS
NORFOLK        CLEAR     43  39  86 CALM      30.30F
VIRGINIA BEACH CLEAR     42  39  89 SE3       30.30F
NORFOLK NAVAL  PTCLDY    47  40  76 CALM      30.32S
WEST POINT*    CLEAR     42  37  83 CALM      30.32S
SALUDA*        FAIR      37  35  92 S8        30.30S
NEWPORT NEWS   CLEAR     39  35  86 CALM      30.31S
LANGLEY AFB    CLEAR     39  37  93 CALM      30.31S
FORT EUSTIS    CLEAR     40  40 100 NE1       30.29S
WILLIAMSBURG*  CLEAR     41  39  93 CALM      30.32R
HR EXEC AP*    CLEAR     34  30  86 CALM      30.33S
FRANKLIN*      PTCLDY    37  36  93 CALM      30.30F
WAKEFIELD      PTCLDY    37  34  89 CALM      30.30S
$$

VAZ020-022-025-037-045-270200-
WEST CENTRAL AND SOUTHWEST VIRGINIA

CITY           SKY/WX    TMP DP  RH WIND       PRES   REMARKS
STAUNTON*      MOCLDY    41  26  55 CALM      30.28R
WAYNESBORO*    MOCLDY    43  22  44 CALM      30.25S
HOT SPRINGS VA CLOUDY    41  15  35 W12       30.23S
LYNCHBURG      CLOUDY    42  29  59 SW3       30.29S
DANVILLE       PTCLDY    42  33  70 S3        30.30R
SOUTH BOSTON*  MOCLDY    41  35  79 CALM      30.30R
MARTINSVILLE   CLOUDY    39  35  84 CALM      30.31S
ROANOKE        MOCLDY    45  28  51 CALM      30.30R
BLACKSBURG     PTCLDY    37  26  65 CALM      30.32R
DUBLIN*        PTCLDY    42  29  61 W5        30.30S
MARION*        MOCLDY    44  21  40 SW5       30.30F
HILLSVILLE*    MOCLDY    45  28  51 CALM      30.29S
RICHLANDS*     MOCLDY    45  18  34 S3        30.26F
WISE*          CLOUDY    45  21  39 S5        30.27S
ABINGDON*      MOCLDY    45  24  45 CALM      30.28F
$$

MDZ021>025-VAZ099-100-270200-
SOUTHERN MARYLAND AND THE DELMARVA PENINSULA

CITY           SKY/WX    TMP DP  RH WIND       PRES   REMARKS
PATUXENT RIVER PTCLDY    41  31  67 S6        30.30R
BAY BRIDGE APT   N/A     41  32  70 S3        30.30R
LEONARDTOWN    CLEAR     37  32  81 CALM      30.32R
DOVER          CLEAR     39  31  73 SW6       30.27R
GEORGETOWN     CLEAR     39  32  76 SW3       30.30R
EASTON         NOT AVBL
CAMBRIDGE      CLEAR     36  32  87 CALM      30.30R
SALISBURY      CLEAR     34  29  82 NE3       30.30R
OCEAN CITY     CLEAR     33  31  92 SW5       30.31R
WALLOPS ISLAND CLEAR     40  34  79 CALM      30.32R
ACCOMACK*      CLEAR     36  32  87 CALM      30.31S
$$

NCZ012>017-030>032-270200-
NORTH CENTRAL AND EASTERN NORTH CAROLINA

CITY           SKY/WX    TMP DP  RH WIND       PRES   REMARKS
ROANOKE RAPIDS MOCLDY    36  36 100 SW3       30.32R
RALEIGH        PTCLDY    40  34  79 CALM      30.31S
ELIZABETH CITY CLEAR     45  37  73 CALM      30.32R
AHOSKIE*       PTCLDY    36  34  95 CALM      30.32R
EDENTON*         N/A     39  36  91 CALM      30.32R
CURRITUCK*     CLEAR     41  38  87 CALM      30.32S
KILL DEVIL HLS CLEAR     45  39  78 CALM      30.30S
MANTEO         CLEAR     39  37  93 CALM      30.32S
CAPE HATTERAS  CLEAR     40  38  93 CALM      30.32S
TARBORO*       CLEAR     39  38  95 CALM      30.32S
GOLDSBORO      CLEAR     42  42  97 CALM      30.31R
WASHINGTON     CLEAR     40  37  90 CALM      30.32S
GREENVILLE     CLEAR     39  37  93 CALM      30.32S
NEW BERN       CLEAR     41  37  86 CALM      30.33R
WILMINGTON     CLEAR     43  41  93 CALM      30.31S
$$

VAZ048-270200-
ELSEWHERE

CITY           SKY/WX    TMP DP  RH WIND       PRES   REMARKS
HARRISBURG PA  PTCLDY    35  29  78 CALM      30.25S
BALTIMORE      PTCLDY    40  31  70 SW3       30.28R
ANNAPOLIS      CLEAR     37  33  85 CALM      30.29R
ANDREWS AFB    PTCLDY    34  31  88 S3        30.28R
PHILADELPHIA   MOCLDY    42  31  64 SW7       30.28R
HENDERSON NC   CLEAR     40  34  79 CALM      30.30S
GREENSBORO     MOCLDY    42  33  70 SW3       30.30R
ROCKY MOUNT    CLEAR     39  37  92 CALM      30.31S
$$

VAZ100-270200-
MARINE

STATION/POSITION TIME  TEMP    WIND        PRES    WAVE   SWELL
                       AIR SEA DIR/SP/G            HT/PER HT/PER
                 (UTC) (F)     (DEG/KT/KT) (MB)    (FT/S) (FT/S)
CAPE MAY NJ      0100   44 45  250/  6/  7 1025.2R
LEWES DE         0100   43 44  250/  3/  4 1025.6R
15NM E FENWICK I 0100   45 46              1025.6R   2/ 8
OCEAN-CITY-INLET 0100   42 46  240/  3/  4 1025.9R
WACHAPREAGUE VA  0100   42 49  230/  2/  3 1026.3F
THOMAS POINT MD  0100   43 43  200/  9/ 10 1027.1R
GOOSES REEF MD   0100   43     VRB  4/  6  1025.3R   0
COVE POINT MD    0100   42     190/  7/  8 1026.1R
SOLOMONS ISLAND  0100      43                N/A
BISHOPS HEAD MD  0100   44 45  180/  5/  6 1025.7R
PINEY POINT MD   0100          180/  3/  4   N/A
POTOMAC MD       0100   43 43  190/  6/  6 1025.4R   0
CAMBRIDGE MD     0100   40 43  200/  3/  3 1026.0R
LEWISETTA VA     0100   42 45  210/  3/  3 1025.9S
RAPPAHANNOCK LGT 0100          160/  5/  6 1026.6F
STINGRAY PT      0100   44 44  200/  4/  6 1026.5F   0
YORK RVR RNG VA  0100   45     170/  5/  5 1025.6R
YORKTOWN VA      0100   44 46   CALM  /  1 1026.0R
JAMESTOWN VA     0100   44 46  110/  2/  2   N/A     0
DOMINION TERM VA 0100   47     110/  6/  7 1026.1F
KIPTOPEKE VA     0100      51  120/  4/  4   N/A
CHES BAY BRIDGE  0100   46 46  140/  6/  6 1025.7F
CAPE HENRY VA    0100   46     140/  7/  7 1025.0F
CHESAPEAKE LGHT  0000   48      90/  5/  5 1027.3R
WILLOUBY STN VA  0100   46     150/  6/  7 1026.5F
S CRANEY ISL VA  0100          140/  4/  5 1026.0F
CAPE HENRY BUOY  0000      49                N/A     2/ 8
1ST LANDING BUOY 0100   45 45  180/  4/  4 1025.8F   1
CAPE CHARLES BUO 0100      47                N/A     2/13   2/13
64NM E OF VA BCH 0100   50 52   40/  2/  4 1026.3R   2/ 8   2/ 8
DUCK PIER NC     0100   51 51  250/  4/  4 1025.8R
44100 DUCK FRF   0100      51                N/A     2/13   2/13
44056 DUCK FRF   0100      50                N/A     2/13   2/13
OREGON INLET NC  0100   49 53   40/  3/  3 1026.4F
HATTERAS NC      0100   51 56  280/  3/  5 1026.9F
DIAMOND SHLS NC  0100   55                 1026.9R   3/ 9
CAPE LOOKOUT NC  0000   55      20/  5/  5 1026.3R
$$


USA.gov is the U.S. government's official web portal to all federal, state and local government web resources and services.